Regional Weather Roundup
Issued by NWS

Home | Current Version | Previous Version | Graphics & Text | Print | Product List | Glossary On
Versions: 1 2 3 4 5 6 7 8 9 10 11 12 13 14 15 16 17 18 19 20 21 22 23 24 25 26 27 28 29 30 31 32 33 34 35 36 37 38 39 40 41 42 43 44 45 46 47 48 49 50
000
ASUS43 KOAX 231710
RWRNE

WEATHER ROUNDUP FOR NEBRASKA
NATIONAL WEATHER SERVICE OMAHA NE
1100 AM CST MON JAN 23 2017

NOTES: SATELLITE DATA IS BEING USED TO AUGMENT CLOUD COVER ABOVE
       12000 FEET.
       "FAIR" INDICATES FEW OR NO CLOUDS BELOW 12,000 FEET WITH NO
       SIGNIFICANT WEATHER AND/OR OBSTRUCTIONS TO VISIBILITY.

  * THESE STATIONS DO NOT REPORT WEATHER SUCH AS RAIN...SNOW OR FOG.

NEZ001>004-019>022-054>056-231800-
NEBRASKA PANHANDLE

CITY           SKY/WX    TMP DP  RH WIND       PRES   REMARKS
SCOTTSBLUFF    SUNNY     34  24  67 E3        29.64F
ALLIANCE       CLOUDY    37  26  64 S8        29.63F WCI  31
CHADRON        SUNNY     35  26  69 CALM      29.63F
KIMBALL        SUNNY     37  26  63 W3        29.64S
SIDNEY         MOSUNNY   38  24  57 W5        29.64S WCI  34
$$

NEZ057>060-069>072-079>082-231800-
SOUTHWEST NEBRASKA

CITY           SKY/WX    TMP DP  RH WIND       PRES   REMARKS
NORTH PLATTE   CLOUDY    37  30  75 E10       29.72F WCI  30
IMPERIAL       SUNNY     40  27  59 S15       29.65F WCI  32
LEXINGTON      MOSUNNY   38  32  79 SE12      29.77S WCI  30
MCCOOK         SUNNY     43  31  62 S15       29.72F
OGALLALA       MOSUNNY   40  30  65 SE9       29.67F WCI  35
$$

NEZ005>010-023>029-035>040-094-231800-
NORTH CENTRAL NEBRASKA

CITY           SKY/WX    TMP DP  RH WIND       PRES   REMARKS
VALENTINE      CLOUDY    28  25  88 E6        29.73F WCI  22
AINSWORTH      CLOUDY    33  31  92 S10       29.75S WCI  25
BROKEN BOW     CLOUDY    33  30  88 SE10      29.77F WCI  25
O`NEILL        CLOUDY   N/A N/A N/A S5        29.83R HAZE
ORD            CLOUDY    29  26  89 E7        29.80F WCI  22
THEDFORD       CLOUDY    36  30  78 SE8       29.73F WCI  30
$$

NEZ041-046>049-061>064-073>077-083>087-231800-
SOUTH CENTRAL NEBRASKA

CITY           SKY/WX    TMP DP  RH WIND       PRES   REMARKS
GRAND ISLAND   CLOUDY    29  29 100 SE7       29.84F FOG     WCI  22
AURORA         FOG       29  29 100 SE5       29.85R VSB 1/4 WCI  24
HASTINGS       MOSUNNY   34  30  85 SE9       29.83F WCI  27
HEBRON         CLOUDY    30  30 100 E5        29.88S FOG     WCI  25
HOLDREGE       SUNNY     38  32  78 SE13      29.77F WCI  30
KEARNEY *      SUNNY     36  28  75 SE9       29.80F WCI  29
YORK           CLOUDY    30  30 100 E5        29.87S FOG     WCI  25
$$

NEZ011>018-030>034-042>045-231800-
NORTHEAST NEBRASKA

CITY           SKY/WX    TMP DP  RH WIND       PRES   REMARKS
NORFOLK        CLOUDY    30  26  85 E6        29.85F WCI  24
ALBION         CLOUDY    28  26  90 S5        29.86R FOG     WCI  23
BLAIR          CLOUDY    32  28  85 W3        29.89S
FREMONT        CLOUDY    33  29  83 CALM      29.90S
TEKAMAH        CLOUDY    33  27  78 CALM      29.91R
WAYNE          CLOUDY    31  28  86 CALM      29.88S
$$

NEZ050>053-065>068-078-088>093-231800-
SOUTHEAST NEBRASKA

CITY           SKY/WX    TMP DP  RH WIND       PRES   REMARKS
LINCOLN        CLOUDY    33  29  85 NE6       29.90F WCI  28
OMAHA EPPLEY   CLOUDY    34  27  75 N3        29.91R
BEATRICE       FOG       31  31 100 E6        29.89F VSB 1/2 WCI  25
FALLS CITY     CLOUDY    32  29  88 NW6       29.93R WCI  26
NEBRASKA CITY  CLOUDY    32  28  86 NW3       29.92S
PLATTSMOUTH    CLOUDY    32  26  78 NW3       29.91F
$$

NEZ044-045-051>053-067-231800-
OMAHA AREA

CITY           SKY/WX    TMP DP  RH WIND       PRES   REMARKS
OMAHA EPPLEY   CLOUDY    34  27  75 N3        29.91R
BLAIR          CLOUDY    32  28  85 W3        29.89S
FREMONT        CLOUDY    33  29  83 CALM      29.90S
MILLARD        CLOUDY    35  29  80 CALM      29.91F
OFFUTT AFB     CLOUDY    33  31  92 SW3       29.91R
PLATTSMOUTH    CLOUDY    32  26  78 NW3       29.91F
WAHOO          CLOUDY    32  28  83 CALM      29.90F
$$



USA.gov is the U.S. government's official web portal to all federal, state and local government web resources and services.